Time,TemperatureF,DewpointF,PressureIn,WindDirection,WindDirectionDegrees,WindSpeedMPH,WindSpeedGustMPH,Humidity,HourlyPrecipIn,Conditions,Clouds,dailyrainin,SoftwareType,DateUTC
2013-03-03 00:00:00,34.0,-0.1,29.83,North,0,0.0,0.0,23,0.00,,---,0.00,VWS V14.00,2013-03-03 05:00:00,
2013-03-03 00:02:00,34.0,-0.1,29.83,North,0,0.0,0.0,23,0.00,,---,0.00,VWS V14.00,2013-03-03 05:02:00,
2013-03-03 00:04:00,34.0,-0.1,29.83,North,0,0.0,0.0,23,0.00,,---,0.00,VWS V14.00,2013-03-03 05:04:00,
2013-03-03 00:05:00,34.0,-0.1,29.83,North,0,0.0,0.0,23,0.00,,---,0.00,VWS V14.00,2013-03-03 05:05:00,
2013-03-03 00:11:00,34.0,-0.1,29.83,North,0,0.0,0.0,23,0.00,,---,0.00,VWS V14.00,2013-03-03 05:11:00,
2013-03-03 00:16:00,34.2,0.1,29.83,North,0,0.0,0.0,23,0.00,,---,0.00,VWS V14.00,2013-03-03 05:16:00,
2013-03-03 00:22:00,34.0,-0.1,29.83,North,0,0.0,0.0,23,0.00,,---,0.00,VWS V14.00,2013-03-03 05:22:00,
2013-03-03 00:28:00,34.0,-0.1,29.83,North,0,0.0,0.0,23,0.00,,---,0.00,VWS V14.00,2013-03-03 05:28:00,
2013-03-03 00:33:00,34.0,-0.1,29.83,North,0,0.0,0.0,23,0.00,,---,0.00,VWS V14.00,2013-03-03 05:33:00,
2013-03-03 00:38:00,34.0,-0.1,29.83,North,0,0.0,0.0,23,0.00,,---,0.00,VWS V14.00,2013-03-03 05:38:00,
2013-03-03 00:44:00,34.0,-0.1,29.83,North,0,0.0,0.0,23,0.00,,---,0.00,VWS V14.00,2013-03-03 05:44:00,
2013-03-03 00:50:00,34.0,-0.1,29.83,North,0,0.0,0.0,23,0.00,,---,0.00,VWS V14.00,2013-03-03 05:50:00,
2013-03-03 00:55:00,34.0,-0.1,29.83,North,0,0.0,0.0,23,0.00,,---,0.00,VWS V14.00,2013-03-03 05:55:00,
2013-03-03 01:01:00,34.0,-0.1,29.83,North,0,0.0,0.0,23,0.00,,---,0.00,VWS V14.00,2013-03-03 06:01:00,
2013-03-03 01:06:00,34.0,-0.1,29.83,North,0,0.0,0.0,23,0.00,,---,0.00,VWS V14.00,2013-03-03 06:06:00,
2013-03-03 01:11:00,34.0,-0.1,29.83,North,0,0.0,0.0,23,0.00,,---,0.00,VWS V14.00,2013-03-03 06:11:00,
2013-03-03 01:16:00,34.0,-0.1,29.83,North,0,0.0,0.0,23,0.00,,---,0.00,VWS V14.00,2013-03-03 06:16:00,
2013-03-03 01:21:00,34.0,-0.1,29.83,North,0,0.0,0.0,23,0.00,,---,0.00,VWS V14.00,2013-03-03 06:21:00,
2013-03-03 01:27:00,34.0,-0.1,29.83,North,0,0.0,0.0,23,0.00,,---,0.00,VWS V14.00,2013-03-03 06:27:00,
2013-03-03 01:32:00,34.0,-0.1,29.83,North,0,0.0,0.0,23,0.00,,---,0.00,VWS V14.00,2013-03-03 06:32:00,
2013-03-03 01:37:00,34.0,-0.1,29.83,North,0,0.0,0.0,23,0.00,,---,0.00,VWS V14.00,2013-03-03 06:37:00,
2013-03-03 01:42:00,34.0,-0.1,29.83,North,0,0.0,0.0,23,0.00,,---,0.00,VWS V14.00,2013-03-03 06:42:00,
2013-03-03 01:47:00,34.0,-0.1,29.83,North,0,0.0,0.0,23,0.00,,---,0.00,VWS V14.00,2013-03-03 06:47:00,
2013-03-03 01:53:00,34.0,-0.1,29.83,North,0,0.0,0.0,23,0.00,,---,0.00,VWS V14.00,2013-03-03 06:53:00,
2013-03-03 01:59:00,34.0,-0.1,29.83,North,0,0.0,0.0,23,0.00,,---,0.00,VWS V14.00,2013-03-03 06:59:00,
2013-03-03 02:04:00,33.8,-0.2,29.83,North,0,0.0,0.0,23,0.00,,---,0.00,VWS V14.00,2013-03-03 07:04:00,
2013-03-03 02:10:00,33.8,-0.2,29.83,North,0,0.0,0.0,23,0.00,,---,0.00,VWS V14.00,2013-03-03 07:10:00,
2013-03-03 02:15:00,33.8,-0.2,29.83,North,0,0.0,0.0,23,0.00,,---,0.00,VWS V14.00,2013-03-03 07:15:00,
2013-03-03 02:20:00,33.8,-0.2,29.83,North,0,0.0,0.0,23,0.00,,---,0.00,VWS V14.00,2013-03-03 07:20:00,
2013-03-03 02:25:00,33.6,-0.4,29.83,North,0,0.0,0.0,23,0.00,,---,0.00,VWS V14.00,2013-03-03 07:25:00,
2013-03-03 02:30:00,33.3,-0.7,29.83,North,0,0.0,0.0,23,0.00,,---,0.00,VWS V14.00,2013-03-03 07:30:00,
2013-03-03 02:35:00,32.9,-1.0,29.80,North,0,0.0,0.0,23,0.00,,---,0.00,VWS V14.00,2013-03-03 07:35:00,
2013-03-03 02:40:00,32.5,-1.3,29.80,North,0,0.0,0.0,23,0.00,,---,0.00,VWS V14.00,2013-03-03 07:40:00,
2013-03-03 02:46:00,32.2,-1.6,29.80,North,0,0.0,0.0,23,0.00,,---,0.00,VWS V14.00,2013-03-03 07:46:00,
2013-03-03 02:51:00,31.5,-2.2,29.80,North,0,0.0,0.0,23,0.00,,---,0.00,VWS V14.00,2013-03-03 07:51:00,
2013-03-03 02:57:00,30.9,-2.7,29.80,North,0,0.0,0.0,23,0.00,,---,0.00,VWS V14.00,2013-03-03 07:57:00,
2013-03-03 03:03:00,30.4,-3.2,29.80,North,0,0.0,0.0,23,0.00,,---,0.00,VWS V14.00,2013-03-03 08:03:00,
2013-03-03 03:08:00,30.0,-3.5,29.80,North,0,0.0,0.0,23,0.00,,---,0.00,VWS V14.00,2013-03-03 08:08:00,
2013-03-03 03:13:00,29.7,-3.8,29.80,North,0,0.0,0.0,23,0.00,,---,0.00,VWS V14.00,2013-03-03 08:13:00,
2013-03-03 03:19:00,29.5,-3.9,29.80,North,0,0.0,0.0,23,0.00,,---,0.00,VWS V14.00,2013-03-03 08:19:00,
2013-03-03 03:25:00,29.3,-4.1,29.80,North,0,0.0,0.0,23,0.00,,---,0.00,VWS V14.00,2013-03-03 08:25:00,
2013-03-03 03:30:00,29.1,-4.2,29.80,North,0,0.0,0.0,23,0.00,,---,0.00,VWS V14.00,2013-03-03 08:30:00,
2013-03-03 03:36:00,29.1,-4.2,29.80,North,0,0.0,0.0,23,0.00,,---,0.00,VWS V14.00,2013-03-03 08:36:00,
2013-03-03 03:41:00,29.1,-4.2,29.80,North,0,0.0,0.0,23,0.00,,---,0.00,VWS V14.00,2013-03-03 08:41:00,
2013-03-03 03:47:00,29.3,-4.1,29.80,North,0,0.0,0.0,23,0.00,,---,0.00,VWS V14.00,2013-03-03 08:47:00,
2013-03-03 03:52:00,29.3,-4.1,29.80,North,0,0.0,0.0,23,0.00,,---,0.00,VWS V14.00,2013-03-03 08:52:00,
2013-03-03 03:57:00,29.5,-1.0,29.80,North,0,0.0,0.0,26,0.00,,---,0.00,VWS V14.00,2013-03-03 08:57:00,
2013-03-03 04:02:00,29.7,-0.8,29.80,North,0,0.0,0.0,26,0.00,,---,0.00,VWS V14.00,2013-03-03 09:02:00,
2013-03-03 04:07:00,29.7,-0.8,29.80,North,0,0.0,0.0,26,0.00,,---,0.00,VWS V14.00,2013-03-03 09:07:00,
2013-03-03 04:13:00,29.8,-0.7,29.80,North,0,0.0,0.0,26,0.00,,---,0.00,VWS V14.00,2013-03-03 09:13:00,
2013-03-03 04:19:00,29.8,-0.7,29.80,North,0,0.0,0.0,26,0.00,,---,0.00,VWS V14.00,2013-03-03 09:19:00,
2013-03-03 04:24:00,29.8,-0.7,29.80,North,0,0.0,0.0,26,0.00,,---,0.00,VWS V14.00,2013-03-03 09:24:00,
2013-03-03 04:29:00,29.7,-0.8,29.80,North,0,0.0,0.0,26,0.00,,---,0.00,VWS V14.00,2013-03-03 09:29:00,
2013-03-03 04:35:00,29.5,-1.0,29.80,North,0,0.0,0.0,26,0.00,,---,0.00,VWS V14.00,2013-03-03 09:35:00,
2013-03-03 04:40:00,29.3,-1.1,29.80,North,0,0.0,0.0,26,0.00,,---,0.00,VWS V14.00,2013-03-03 09:40:00,
2013-03-03 04:46:00,28.9,-1.5,29.80,North,0,0.0,0.0,26,0.00,,---,0.00,VWS V14.00,2013-03-03 09:46:00,
2013-03-03 04:51:00,28.8,-1.6,29.80,North,0,0.0,0.0,26,0.00,,---,0.00,VWS V14.00,2013-03-03 09:51:00,
2013-03-03 04:57:00,28.6,-1.8,29.80,North,0,0.0,0.0,26,0.00,,---,0.00,VWS V14.00,2013-03-03 09:57:00,
2013-03-03 05:02:00,28.4,-1.9,29.80,North,0,0.0,0.0,26,0.00,,---,0.00,VWS V14.00,2013-03-03 10:02:00,
2013-03-03 05:08:00,28.2,-2.1,29.80,North,0,0.0,0.0,26,0.00,,---,0.00,VWS V14.00,2013-03-03 10:08:00,
2013-03-03 05:13:00,28.0,-2.2,29.80,North,0,0.0,0.0,26,0.00,,---,0.00,VWS V14.00,2013-03-03 10:13:00,
2013-03-03 05:18:00,27.9,-2.4,29.80,North,0,0.0,0.0,26,0.00,,---,0.00,VWS V14.00,2013-03-03 10:18:00,
2013-03-03 05:24:00,27.7,-2.5,29.80,North,0,0.0,0.0,26,0.00,,---,0.00,VWS V14.00,2013-03-03 10:24:00,
2013-03-03 05:29:00,27.5,-2.7,29.80,North,0,0.0,0.0,26,0.00,,---,0.00,VWS V14.00,2013-03-03 10:29:00,
2013-03-03 05:35:00,27.1,-3.0,29.83,North,0,0.0,0.0,26,0.00,,---,0.00,VWS V14.00,2013-03-03 10:35:00,
2013-03-03 05:40:00,27.1,-3.0,29.83,North,0,0.0,0.0,26,0.00,,---,0.00,VWS V14.00,2013-03-03 10:40:00,
2013-03-03 05:45:00,27.1,-3.0,29.83,North,0,0.0,0.0,26,0.00,,---,0.00,VWS V14.00,2013-03-03 10:45:00,
2013-03-03 05:51:00,27.0,-3.2,29.83,North,0,0.0,0.0,26,0.00,,---,0.00,VWS V14.00,2013-03-03 10:51:00,
2013-03-03 05:56:00,27.0,-3.2,29.83,North,0,0.0,0.0,26,0.00,,---,0.00,VWS V14.00,2013-03-03 10:56:00,
2013-03-03 06:02:00,26.8,-3.3,29.83,North,0,0.0,0.0,26,0.00,,---,0.00,VWS V14.00,2013-03-03 11:02:00,
2013-03-03 06:08:00,26.8,-3.3,29.83,North,0,0.0,0.0,26,0.00,,---,0.00,VWS V14.00,2013-03-03 11:08:00,
2013-03-03 06:14:00,26.6,-0.9,29.83,North,0,0.0,0.0,30,0.00,,---,0.00,VWS V14.00,2013-03-03 11:14:00,
2013-03-03 06:19:00,26.6,-0.9,29.80,North,0,0.0,0.0,30,0.00,,---,0.00,VWS V14.00,2013-03-03 11:19:00,
2013-03-03 06:25:00,26.6,-0.9,29.80,North,0,0.0,0.0,30,0.00,,---,0.00,VWS V14.00,2013-03-03 11:25:00,
2013-03-03 06:31:00,26.4,-1.1,29.80,North,0,0.0,0.0,30,0.00,,---,0.00,VWS V14.00,2013-03-03 11:31:00,
2013-03-03 06:37:00,26.2,-1.2,29.83,North,0,0.0,0.0,30,0.00,,---,0.00,VWS V14.00,2013-03-03 11:37:00,
2013-03-03 06:43:00,26.1,-1.4,29.83,North,0,0.0,0.0,30,0.00,,---,0.00,VWS V14.00,2013-03-03 11:43:00,
2013-03-03 06:48:00,26.1,-1.4,29.83,North,0,0.0,0.0,30,0.00,,---,0.00,VWS V14.00,2013-03-03 11:48:00,
2013-03-03 06:54:00,26.1,-1.4,29.83,North,0,0.0,0.0,30,0.00,,---,0.00,VWS V14.00,2013-03-03 11:54:00,
2013-03-03 07:00:00,26.1,-1.4,29.83,North,0,0.0,0.0,30,0.00,,---,0.00,VWS V14.00,2013-03-03 12:00:00,
2013-03-03 07:05:00,26.2,-1.2,29.83,North,0,0.0,0.0,30,0.00,,---,0.00,VWS V14.00,2013-03-03 12:05:00,
2013-03-03 07:11:00,26.4,-1.1,29.83,North,0,0.0,0.0,30,0.00,,---,0.00,VWS V14.00,2013-03-03 12:11:00,
2013-03-03 07:16:00,26.6,-0.9,29.83,North,0,0.0,0.0,30,0.00,,---,0.00,VWS V14.00,2013-03-03 12:16:00,
2013-03-03 07:22:00,26.8,0.8,29.83,North,0,0.0,0.0,32,0.00,,---,0.00,VWS V14.00,2013-03-03 12:22:00,
2013-03-03 07:27:00,27.0,1.0,29.83,North,0,0.0,0.0,32,0.00,,---,0.00,VWS V14.00,2013-03-03 12:27:00,
2013-03-03 07:32:00,27.1,1.1,29.83,North,0,0.0,0.0,32,0.00,,---,0.00,VWS V14.00,2013-03-03 12:32:00,
2013-03-03 07:37:00,27.3,1.3,29.83,North,0,0.0,0.0,32,0.00,,---,0.00,VWS V14.00,2013-03-03 12:37:00,
2013-03-03 07:43:00,27.5,1.5,29.83,North,0,0.0,0.0,32,0.00,,---,0.00,VWS V14.00,2013-03-03 12:43:00,
2013-03-03 07:49:00,27.9,1.8,29.85,North,0,0.0,0.0,32,0.00,,---,0.00,VWS V14.00,2013-03-03 12:49:00,
2013-03-03 07:55:00,28.8,2.6,29.85,North,0,0.0,0.0,32,0.00,,---,0.00,VWS V14.00,2013-03-03 12:55:00,
2013-03-03 08:00:00,29.3,3.1,29.85,North,0,0.0,0.0,32,0.00,,---,0.00,VWS V14.00,2013-03-03 13:00:00,
2013-03-03 08:06:00,30.2,5.3,29.83,North,0,0.0,0.0,34,0.00,,---,0.00,VWS V14.00,2013-03-03 13:06:00,
2013-03-03 08:12:00,30.7,5.8,29.83,North,0,0.0,0.0,34,0.00,,---,0.00,VWS V14.00,2013-03-03 13:12:00,
2013-03-03 08:17:00,31.1,4.6,29.85,North,0,0.0,0.0,32,0.00,,---,0.00,VWS V14.00,2013-03-03 13:17:00,
2013-03-03 08:22:00,31.6,5.1,29.85,North,0,0.0,0.0,32,0.00,,---,0.00,VWS V14.00,2013-03-03 13:22:00,
2013-03-03 08:28:00,32.7,3.6,29.85,North,0,0.0,0.0,28,0.00,,---,0.00,VWS V14.00,2013-03-03 13:28:00,
2013-03-03 08:34:00,33.8,4.6,29.85,North,0,0.0,0.0,28,0.00,,---,0.00,VWS V14.00,2013-03-03 13:34:00,
2013-03-03 08:39:00,35.2,5.8,29.85,North,0,0.0,0.0,28,0.00,,---,0.00,VWS V14.00,2013-03-03 13:39:00,
2013-03-03 08:44:00,36.1,3.8,29.85,North,0,0.0,0.0,25,0.00,,---,0.00,VWS V14.00,2013-03-03 13:44:00,
2013-03-03 08:50:00,37.6,4.0,29.85,North,0,0.0,0.0,24,0.00,,---,0.00,VWS V14.00,2013-03-03 13:50:00,
2013-03-03 08:55:00,38.3,4.6,29.85,North,0,0.0,0.0,24,0.00,,---,0.00,VWS V14.00,2013-03-03 13:55:00,
2013-03-03 09:01:00,39.0,5.2,29.85,North,0,0.0,0.0,24,0.00,,---,0.00,VWS V14.00,2013-03-03 14:01:00,
2013-03-03 09:07:00,39.0,5.2,29.85,North,0,0.0,0.0,24,0.00,,---,0.00,VWS V14.00,2013-03-03 14:07:00,
2013-03-03 09:12:00,39.0,3.1,29.85,North,0,0.0,0.0,22,0.00,,---,0.00,VWS V14.00,2013-03-03 14:12:00,
2013-03-03 09:17:00,39.4,2.2,29.83,North,0,0.0,0.0,21,0.00,,---,0.00,VWS V14.00,2013-03-03 14:17:00,
2013-03-03 09:23:00,39.7,2.5,29.83,North,0,0.0,0.0,21,0.00,,---,0.00,VWS V14.00,2013-03-03 14:23:00,
2013-03-03 09:28:00,40.1,2.8,29.83,North,0,0.0,0.0,21,0.00,,---,0.00,VWS V14.00,2013-03-03 14:28:00,
2013-03-03 09:33:00,40.3,3.0,29.83,North,0,0.0,0.0,21,0.00,,---,0.00,VWS V14.00,2013-03-03 14:33:00,
2013-03-03 09:39:00,40.5,3.1,29.83,North,0,0.0,0.0,21,0.00,,---,0.00,VWS V14.00,2013-03-03 14:39:00,
2013-03-03 09:44:00,41.0,3.6,29.83,North,0,0.0,0.0,21,0.00,,---,0.00,VWS V14.00,2013-03-03 14:44:00,
2013-03-03 09:50:00,40.8,3.4,29.83,North,0,0.0,0.0,21,0.00,,---,0.00,VWS V14.00,2013-03-03 14:50:00,
2013-03-03 09:55:00,40.8,3.4,29.83,North,0,0.0,0.0,21,0.00,,---,0.00,VWS V14.00,2013-03-03 14:55:00,
2013-03-03 10:01:00,40.6,3.3,29.83,North,0,0.0,0.0,21,0.00,,---,0.00,VWS V14.00,2013-03-03 15:01:00,
2013-03-03 10:06:00,40.6,3.3,29.83,North,0,0.0,0.0,21,0.00,,---,0.00,VWS V14.00,2013-03-03 15:06:00,
2013-03-03 10:11:00,39.9,2.7,29.83,North,0,0.0,0.0,21,0.00,,---,0.00,VWS V14.00,2013-03-03 15:11:00,
2013-03-03 10:16:00,40.3,3.0,29.83,North,0,0.0,0.0,21,0.00,,---,0.00,VWS V14.00,2013-03-03 15:16:00,
2013-03-03 10:21:00,41.4,3.9,29.83,North,0,0.0,0.0,21,0.00,,---,0.00,VWS V14.00,2013-03-03 15:21:00,
2013-03-03 10:27:00,41.7,4.2,29.83,North,0,0.0,0.0,21,0.00,,---,0.00,VWS V14.00,2013-03-03 15:27:00,
2013-03-03 10:32:00,42.1,4.5,29.83,North,0,0.0,0.0,21,0.00,,---,0.00,VWS V14.00,2013-03-03 15:32:00,
2013-03-03 10:38:00,42.4,4.8,29.83,North,0,0.0,0.0,21,0.00,,---,0.00,VWS V14.00,2013-03-03 15:38:00,
2013-03-03 10:43:00,42.1,4.5,29.83,North,0,0.0,0.0,21,0.00,,---,0.00,VWS V14.00,2013-03-03 15:43:00,
2013-03-03 10:49:00,42.3,4.6,29.83,North,0,0.0,0.0,21,0.00,,---,0.00,VWS V14.00,2013-03-03 15:49:00,
2013-03-03 10:54:00,41.4,3.9,29.83,North,0,0.0,0.0,21,0.00,,---,0.00,VWS V14.00,2013-03-03 15:54:00,
2013-03-03 11:00:00,40.5,3.1,29.83,North,0,0.0,0.0,21,0.00,,---,0.00,VWS V14.00,2013-03-03 16:00:00,
2013-03-03 11:06:00,40.1,2.8,29.83,North,0,0.0,0.0,21,0.00,,---,0.00,VWS V14.00,2013-03-03 16:06:00,
2013-03-03 11:11:00,39.9,2.7,29.83,North,0,0.0,0.0,21,0.00,,---,0.00,VWS V14.00,2013-03-03 16:11:00,
2013-03-03 11:17:00,39.9,2.7,29.83,North,0,0.0,0.0,21,0.00,,---,0.00,VWS V14.00,2013-03-03 16:17:00,
2013-03-03 11:22:00,40.3,3.0,29.83,North,0,0.0,0.0,21,0.00,,---,0.00,VWS V14.00,2013-03-03 16:22:00,
2013-03-03 11:27:00,42.1,4.5,29.83,North,0,0.0,0.0,21,0.00,,---,0.00,VWS V14.00,2013-03-03 16:27:00,
2013-03-03 11:32:00,42.3,4.6,29.83,North,0,0.0,0.0,21,0.00,,---,0.00,VWS V14.00,2013-03-03 16:32:00,
2013-03-03 11:38:00,42.8,5.1,29.83,North,0,0.0,0.0,21,0.00,,---,0.00,VWS V14.00,2013-03-03 16:38:00,
2013-03-03 11:43:00,43.3,7.8,29.83,North,0,0.0,0.0,23,0.00,,---,0.00,VWS V14.00,2013-03-03 16:43:00,
2013-03-03 11:49:00,43.0,5.2,29.83,North,0,0.0,0.0,21,0.00,,---,0.00,VWS V14.00,2013-03-03 16:49:00,
2013-03-03 11:54:00,43.0,5.2,29.83,North,0,0.0,0.0,21,0.00,,---,0.00,VWS V14.00,2013-03-03 16:54:00,
2013-03-03 11:59:00,42.3,4.6,29.83,North,0,0.0,0.0,21,0.00,,---,0.00,VWS V14.00,2013-03-03 16:59:00,
2013-03-03 12:05:00,41.9,4.3,29.80,North,0,0.0,0.0,21,0.00,,---,0.00,VWS V14.00,2013-03-03 17:05:00,
2013-03-03 12:10:00,42.4,4.8,29.80,North,0,0.0,0.0,21,0.00,,---,0.00,VWS V14.00,2013-03-03 17:10:00,
2013-03-03 12:16:00,42.4,4.8,29.80,North,0,0.0,0.0,21,0.00,,---,0.00,VWS V14.00,2013-03-03 17:16:00,
2013-03-03 12:22:00,42.3,4.6,29.80,North,0,0.0,0.0,21,0.00,,---,0.00,VWS V14.00,2013-03-03 17:22:00,
2013-03-03 12:28:00,42.6,4.9,29.80,North,0,0.0,0.0,21,0.00,,---,0.00,VWS V14.00,2013-03-03 17:28:00,
2013-03-03 12:34:00,42.3,4.6,29.80,North,0,0.0,0.0,21,0.00,,---,0.00,VWS V14.00,2013-03-03 17:34:00,
2013-03-03 12:39:00,42.1,4.5,29.80,North,0,0.0,0.0,21,0.00,,---,0.00,VWS V14.00,2013-03-03 17:39:00,
2013-03-03 12:45:00,42.4,4.8,29.80,North,0,0.0,0.0,21,0.00,,---,0.00,VWS V14.00,2013-03-03 17:45:00,
2013-03-03 12:50:00,42.4,4.8,29.80,North,0,0.0,0.0,21,0.00,,---,0.00,VWS V14.00,2013-03-03 17:50:00,
2013-03-03 12:56:00,42.6,4.9,29.80,North,0,0.0,0.0,21,0.00,,---,0.00,VWS V14.00,2013-03-03 17:56:00,
2013-03-03 13:01:00,42.3,4.6,29.80,North,0,0.0,0.0,21,0.00,,---,0.00,VWS V14.00,2013-03-03 18:01:00,
2013-03-03 13:06:00,41.9,4.3,29.80,North,0,0.0,0.0,21,0.00,,---,0.00,VWS V14.00,2013-03-03 18:06:00,
2013-03-03 13:12:00,42.3,4.6,29.80,North,0,0.0,0.0,21,0.00,,---,0.00,VWS V14.00,2013-03-03 18:12:00,
2013-03-03 13:18:00,42.8,5.1,29.77,North,0,0.0,0.0,21,0.00,,---,0.00,VWS V14.00,2013-03-03 18:18:00,
2013-03-03 13:24:00,43.0,5.2,29.77,North,0,0.0,0.0,21,0.00,,---,0.00,VWS V14.00,2013-03-03 18:24:00,
2013-03-03 13:29:00,43.0,5.2,29.77,North,0,0.0,0.0,21,0.00,,---,0.00,VWS V14.00,2013-03-03 18:29:00,
2013-03-03 13:35:00,43.5,5.7,29.77,North,0,0.0,0.0,21,0.00,,---,0.00,VWS V14.00,2013-03-03 18:35:00,
2013-03-03 13:40:00,43.3,5.5,29.77,North,0,0.0,0.0,21,0.00,,---,0.00,VWS V14.00,2013-03-03 18:40:00,
2013-03-03 13:45:00,43.3,5.5,29.77,North,0,0.0,0.0,21,0.00,,---,0.00,VWS V14.00,2013-03-03 18:45:00,
2013-03-03 13:50:00,43.7,8.1,29.77,North,0,0.0,0.0,23,0.00,,---,0.00,VWS V14.00,2013-03-03 18:50:00,
2013-03-03 13:55:00,43.9,8.3,29.77,North,0,0.0,0.0,23,0.00,,---,0.00,VWS V14.00,2013-03-03 18:55:00,
2013-03-03 14:01:00,44.1,8.4,29.77,North,0,0.0,0.0,23,0.00,,---,0.00,VWS V14.00,2013-03-03 19:01:00,
2013-03-03 14:06:00,44.2,8.6,29.77,North,0,0.0,0.0,23,0.00,,---,0.00,VWS V14.00,2013-03-03 19:06:00,
2013-03-03 14:11:00,44.4,8.8,29.77,North,0,0.0,0.0,23,0.00,,---,0.00,VWS V14.00,2013-03-03 19:11:00,
2013-03-03 14:16:00,44.4,8.8,29.77,North,0,0.0,0.0,23,0.00,,---,0.00,VWS V14.00,2013-03-03 19:16:00,
2013-03-03 14:22:00,44.6,8.9,29.77,North,0,0.0,0.0,23,0.00,,---,0.00,VWS V14.00,2013-03-03 19:22:00,
2013-03-03 14:28:00,45.0,9.2,29.77,North,0,0.0,0.0,23,0.00,,---,0.00,VWS V14.00,2013-03-03 19:28:00,
2013-03-03 14:33:00,45.5,9.7,29.74,North,0,0.0,0.0,23,0.00,,---,0.00,VWS V14.00,2013-03-03 19:33:00,
2013-03-03 14:38:00,45.5,9.7,29.74,North,0,0.0,0.0,23,0.00,,---,0.00,VWS V14.00,2013-03-03 19:38:00,
2013-03-03 14:44:00,45.3,9.5,29.74,North,0,0.0,0.0,23,0.00,,---,0.00,VWS V14.00,2013-03-03 19:44:00,
2013-03-03 14:49:00,45.3,9.5,29.74,North,0,0.0,0.0,23,0.00,,---,0.00,VWS V14.00,2013-03-03 19:49:00,
2013-03-03 14:55:00,45.5,9.7,29.74,North,0,0.0,0.0,23,0.00,,---,0.00,VWS V14.00,2013-03-03 19:55:00,
2013-03-03 15:00:00,45.9,10.0,29.74,North,0,0.0,0.0,23,0.00,,---,0.00,VWS V14.00,2013-03-03 20:00:00,
2013-03-03 15:06:00,45.9,10.0,29.74,North,0,0.0,0.0,23,0.00,,---,0.00,VWS V14.00,2013-03-03 20:06:00,
2013-03-03 15:12:00,45.7,9.8,29.74,North,0,0.0,0.0,23,0.00,,---,0.00,VWS V14.00,2013-03-03 20:12:00,
2013-03-03 15:17:00,45.5,9.7,29.74,North,0,0.0,0.0,23,0.00,,---,0.00,VWS V14.00,2013-03-03 20:17:00,
2013-03-03 15:22:00,45.3,9.5,29.74,North,0,0.0,0.0,23,0.00,,---,0.00,VWS V14.00,2013-03-03 20:22:00,
2013-03-03 15:27:00,45.3,9.5,29.74,North,0,0.0,0.0,23,0.00,,---,0.00,VWS V14.00,2013-03-03 20:27:00,
2013-03-03 15:32:00,45.3,9.5,29.71,North,0,0.0,0.0,23,0.00,,---,0.00,VWS V14.00,2013-03-03 20:32:00,
2013-03-03 15:38:00,45.0,9.2,29.71,North,0,0.0,0.0,23,0.00,,---,0.00,VWS V14.00,2013-03-03 20:38:00,
2013-03-03 15:44:00,45.1,9.4,29.71,North,0,0.0,0.0,23,0.00,,---,0.00,VWS V14.00,2013-03-03 20:44:00,
2013-03-03 15:49:00,45.5,9.7,29.74,North,0,0.0,0.0,23,0.00,,---,0.00,VWS V14.00,2013-03-03 20:49:00,
2013-03-03 15:55:00,45.9,10.0,29.74,North,0,0.0,0.0,23,0.00,,---,0.00,VWS V14.00,2013-03-03 20:55:00,
2013-03-03 16:00:00,45.7,9.8,29.74,North,0,0.0,0.0,23,0.00,,---,0.00,VWS V14.00,2013-03-03 21:00:00,
2013-03-03 16:05:00,45.3,9.5,29.74,North,0,0.0,0.0,23,0.00,,---,0.00,VWS V14.00,2013-03-03 21:05:00,
2013-03-03 16:11:00,45.3,9.5,29.74,North,0,0.0,0.0,23,0.00,,---,0.00,VWS V14.00,2013-03-03 21:11:00,
2013-03-03 16:17:00,45.3,9.5,29.74,North,0,0.0,0.0,23,0.00,,---,0.00,VWS V14.00,2013-03-03 21:17:00,
2013-03-03 16:22:00,45.3,9.5,29.74,North,0,0.0,0.0,23,0.00,,---,0.00,VWS V14.00,2013-03-03 21:22:00,
2013-03-03 16:27:00,45.1,9.4,29.74,North,0,0.0,0.0,23,0.00,,---,0.00,VWS V14.00,2013-03-03 21:27:00,
2013-03-03 16:36:00,45.1,9.4,29.74,North,0,0.0,0.0,23,0.00,,---,0.00,VWS V14.00,2013-03-03 21:36:00,
2013-03-03 16:42:00,45.3,9.5,29.74,North,0,0.0,0.0,23,0.00,,---,0.00,VWS V14.00,2013-03-03 21:42:00,
2013-03-03 16:48:00,45.5,9.7,29.74,North,0,0.0,0.0,23,0.00,,---,0.00,VWS V14.00,2013-03-03 21:48:00,
2013-03-03 16:54:00,45.5,9.7,29.74,North,0,0.0,0.0,23,0.00,,---,0.00,VWS V14.00,2013-03-03 21:54:00,
2013-03-03 16:59:00,45.7,9.8,29.74,North,0,0.0,0.0,23,0.00,,---,0.00,VWS V14.00,2013-03-03 21:59:00,
2013-03-03 17:04:00,45.7,9.8,29.74,North,0,0.0,0.0,23,0.00,,---,0.00,VWS V14.00,2013-03-03 22:04:00,
2013-03-03 17:09:00,45.5,9.7,29.74,North,0,0.0,0.0,23,0.00,,---,0.00,VWS V14.00,2013-03-03 22:09:00,
2013-03-03 17:14:00,45.1,9.4,29.74,North,0,0.0,0.0,23,0.00,,---,0.00,VWS V14.00,2013-03-03 22:14:00,
2013-03-03 17:20:00,44.8,9.1,29.74,North,0,0.0,0.0,23,0.00,,---,0.00,VWS V14.00,2013-03-03 22:20:00,
2013-03-03 17:25:00,44.4,8.8,29.74,North,0,0.0,0.0,23,0.00,,---,0.00,VWS V14.00,2013-03-03 22:25:00,
2013-03-03 17:30:00,44.2,8.6,29.74,North,0,0.0,0.0,23,0.00,,---,0.00,VWS V14.00,2013-03-03 22:30:00,
2013-03-03 17:35:00,44.1,8.4,29.74,North,0,0.0,0.0,23,0.00,,---,0.00,VWS V14.00,2013-03-03 22:35:00,
2013-03-03 17:40:00,43.7,5.8,29.74,North,0,0.0,0.0,21,0.00,,---,0.00,VWS V14.00,2013-03-03 22:40:00,
2013-03-03 17:45:00,43.5,5.7,29.74,North,0,0.0,0.0,21,0.00,,---,0.00,VWS V14.00,2013-03-03 22:45:00,
2013-03-03 17:50:00,43.0,5.2,29.77,North,0,0.0,0.0,21,0.00,,---,0.00,VWS V14.00,2013-03-03 22:50:00,
2013-03-03 17:56:00,42.6,4.9,29.77,North,0,0.0,0.0,21,0.00,,---,0.00,VWS V14.00,2013-03-03 22:56:00,
2013-03-03 18:01:00,42.4,4.8,29.77,North,0,0.0,0.0,21,0.00,,---,0.00,VWS V14.00,2013-03-03 23:01:00,
2013-03-03 18:07:00,41.9,4.3,29.77,North,0,0.0,0.0,21,0.00,,---,0.00,VWS V14.00,2013-03-03 23:07:00,
2013-03-03 18:17:00,41.0,3.6,29.74,North,0,0.0,0.0,21,0.00,,---,0.00,VWS V14.00,2013-03-03 23:17:00,
2013-03-03 18:22:00,40.5,3.1,29.74,North,0,0.0,0.0,21,0.00,,---,0.00,VWS V14.00,2013-03-03 23:22:00,
2013-03-03 18:27:00,39.9,2.7,29.74,North,0,0.0,0.0,21,0.00,,---,0.00,VWS V14.00,2013-03-03 23:27:00,
2013-03-03 18:32:00,39.6,2.4,29.77,North,0,0.0,0.0,21,0.00,,---,0.00,VWS V14.00,2013-03-03 23:32:00,
2013-03-03 18:37:00,39.2,2.1,29.77,North,0,0.0,0.0,21,0.00,,---,0.00,VWS V14.00,2013-03-03 23:37:00,
2013-03-03 18:43:00,38.8,2.9,29.77,North,0,0.0,0.0,22,0.00,,---,0.00,VWS V14.00,2013-03-03 23:43:00,
2013-03-03 18:49:00,38.5,2.6,29.77,North,0,0.0,0.0,22,0.00,,---,0.00,VWS V14.00,2013-03-03 23:49:00,
2013-03-03 18:54:00,38.3,2.5,29.77,North,0,0.0,0.0,22,0.00,,---,0.00,VWS V14.00,2013-03-03 23:54:00,
2013-03-03 18:59:00,38.1,2.3,29.77,North,0,0.0,0.0,22,0.00,,---,0.00,VWS V14.00,2013-03-03 23:59:00,
2013-03-03 19:05:00,37.9,2.2,29.80,North,0,0.0,0.0,22,0.00,,---,0.00,VWS V14.00,2013-03-04 00:05:00,
2013-03-03 19:10:00,37.8,2.0,29.80,North,0,0.0,0.0,22,0.00,,---,0.00,VWS V14.00,2013-03-04 00:10:00,
2013-03-03 19:16:00,37.8,2.0,29.80,North,0,0.0,0.0,22,0.00,,---,0.00,VWS V14.00,2013-03-04 00:16:00,
2013-03-03 19:21:00,37.8,2.0,29.80,North,0,0.0,0.0,22,0.00,,---,0.00,VWS V14.00,2013-03-04 00:21:00,
2013-03-03 19:27:00,37.8,2.0,29.80,North,0,0.0,0.0,22,0.00,,---,0.00,VWS V14.00,2013-03-04 00:27:00,
2013-03-03 19:33:00,37.8,2.0,29.80,North,0,0.0,0.0,22,0.00,,---,0.00,VWS V14.00,2013-03-04 00:33:00,
2013-03-03 19:38:00,37.9,2.2,29.80,North,0,0.0,0.0,22,0.00,,---,0.00,VWS V14.00,2013-03-04 00:38:00,
2013-03-03 19:43:00,37.9,2.2,29.80,North,0,0.0,0.0,22,0.00,,---,0.00,VWS V14.00,2013-03-04 00:43:00,
2013-03-03 19:48:00,37.9,2.2,29.80,North,0,0.0,0.0,22,0.00,,---,0.00,VWS V14.00,2013-03-04 00:48:00,
2013-03-03 19:54:00,38.1,2.3,29.80,North,0,0.0,0.0,22,0.00,,---,0.00,VWS V14.00,2013-03-04 00:54:00,
2013-03-03 19:59:00,38.1,2.3,29.80,North,0,0.0,0.0,22,0.00,,---,0.00,VWS V14.00,2013-03-04 00:59:00,
2013-03-03 20:05:00,38.5,2.6,29.80,North,0,0.0,0.0,22,0.00,,---,0.00,VWS V14.00,2013-03-04 01:05:00,
2013-03-03 20:10:00,39.0,3.1,29.80,North,0,0.0,0.0,22,0.00,,---,0.00,VWS V14.00,2013-03-04 01:10:00,
2013-03-03 20:16:00,39.2,2.1,29.80,North,0,0.0,0.0,21,0.00,,---,0.00,VWS V14.00,2013-03-04 01:16:00,
2013-03-03 20:21:00,39.4,2.2,29.83,North,0,0.0,0.0,21,0.00,,---,0.00,VWS V14.00,2013-03-04 01:21:00,
2013-03-03 20:26:00,39.4,2.2,29.83,North,0,0.0,0.0,21,0.00,,---,0.00,VWS V14.00,2013-03-04 01:26:00,
2013-03-03 20:31:00,39.4,2.2,29.83,North,0,0.0,0.0,21,0.00,,---,0.00,VWS V14.00,2013-03-04 01:31:00,
2013-03-03 20:37:00,39.4,2.2,29.83,North,0,0.0,0.0,21,0.00,,---,0.00,VWS V14.00,2013-03-04 01:37:00,
2013-03-03 20:43:00,39.2,2.1,29.83,North,0,0.0,0.0,21,0.00,,---,0.00,VWS V14.00,2013-03-04 01:43:00,
2013-03-03 20:49:00,39.0,3.1,29.83,North,0,0.0,0.0,22,0.00,,---,0.00,VWS V14.00,2013-03-04 01:49:00,
2013-03-03 20:54:00,38.8,2.9,29.83,North,0,0.0,0.0,22,0.00,,---,0.00,VWS V14.00,2013-03-04 01:54:00,
2013-03-03 21:00:00,38.7,2.8,29.83,North,0,0.0,0.0,22,0.00,,---,0.00,VWS V14.00,2013-03-04 02:00:00,
2013-03-03 21:06:00,38.5,2.6,29.83,North,0,0.0,0.0,22,0.00,,---,0.00,VWS V14.00,2013-03-04 02:06:00,
2013-03-03 21:11:00,38.3,2.5,29.83,North,0,0.0,0.0,22,0.00,,---,0.00,VWS V14.00,2013-03-04 02:11:00,
2013-03-03 21:16:00,38.1,2.3,29.83,North,0,0.0,0.0,22,0.00,,---,0.00,VWS V14.00,2013-03-04 02:16:00,
2013-03-03 21:22:00,38.1,2.3,29.83,North,0,0.0,0.0,22,0.00,,---,0.00,VWS V14.00,2013-03-04 02:22:00,
2013-03-03 21:28:00,37.9,2.2,29.83,North,0,0.0,0.0,22,0.00,,---,0.00,VWS V14.00,2013-03-04 02:28:00,
2013-03-03 21:33:00,37.8,2.0,29.85,North,0,0.0,0.0,22,0.00,,---,0.00,VWS V14.00,2013-03-04 02:33:00,
2013-03-03 21:38:00,37.6,1.9,29.85,North,0,0.0,0.0,22,0.00,,---,0.00,VWS V14.00,2013-03-04 02:38:00,
2013-03-03 21:44:00,37.6,1.9,29.85,North,0,0.0,0.0,22,0.00,,---,0.00,VWS V14.00,2013-03-04 02:44:00,
2013-03-03 21:49:00,37.4,1.7,29.85,North,0,0.0,0.0,22,0.00,,---,0.00,VWS V14.00,2013-03-04 02:49:00,
2013-03-03 21:55:00,37.2,1.5,29.85,North,0,0.0,0.0,22,0.00,,---,0.00,VWS V14.00,2013-03-04 02:55:00,
2013-03-03 22:01:00,36.9,1.2,29.85,North,0,0.0,0.0,22,0.00,,---,0.00,VWS V14.00,2013-03-04 03:01:00,
2013-03-03 22:06:00,36.7,1.1,29.85,North,0,0.0,0.0,22,0.00,,---,0.00,VWS V14.00,2013-03-04 03:06:00,
2013-03-03 22:11:00,36.3,0.8,29.85,North,0,0.0,0.0,22,0.00,,---,0.00,VWS V14.00,2013-03-04 03:11:00,
2013-03-03 22:17:00,36.0,0.5,29.85,North,0,0.0,0.0,22,0.00,,---,0.00,VWS V14.00,2013-03-04 03:17:00,
2013-03-03 22:22:00,35.8,0.3,29.85,North,0,0.0,0.0,22,0.00,,---,0.00,VWS V14.00,2013-03-04 03:22:00,
2013-03-03 22:27:00,35.6,0.2,29.85,North,0,0.0,0.0,22,0.00,,---,0.00,VWS V14.00,2013-03-04 03:27:00,
2013-03-03 22:33:00,35.4,1.1,29.85,North,0,0.0,0.0,23,0.00,,---,0.00,VWS V14.00,2013-03-04 03:33:00,
2013-03-03 22:38:00,35.1,0.8,29.85,North,0,0.0,0.0,23,0.00,,---,0.00,VWS V14.00,2013-03-04 03:38:00,
2013-03-03 22:44:00,34.9,0.7,29.85,North,0,0.0,0.0,23,0.00,,---,0.00,VWS V14.00,2013-03-04 03:44:00,
2013-03-03 22:49:00,34.7,0.5,29.85,North,0,0.0,0.0,23,0.00,,---,0.00,VWS V14.00,2013-03-04 03:49:00,
2013-03-03 22:54:00,34.3,0.2,29.85,North,0,0.0,0.0,23,0.00,,---,0.00,VWS V14.00,2013-03-04 03:54:00,
2013-03-03 23:00:00,34.2,0.1,29.85,North,0,0.0,0.0,23,0.00,,---,0.00,VWS V14.00,2013-03-04 04:00:00,
2013-03-03 23:05:00,34.0,-0.1,29.85,North,0,0.0,0.0,23,0.00,,---,0.00,VWS V14.00,2013-03-04 04:05:00,
2013-03-03 23:11:00,33.6,-0.4,29.85,North,0,0.0,0.0,23,0.00,,---,0.00,VWS V14.00,2013-03-04 04:11:00,
2013-03-03 23:17:00,33.4,-0.6,29.85,North,0,0.0,0.0,23,0.00,,---,0.00,VWS V14.00,2013-03-04 04:17:00,
2013-03-03 23:22:00,33.3,-0.7,29.88,North,0,0.0,0.0,23,0.00,,---,0.00,VWS V14.00,2013-03-04 04:22:00,
2013-03-03 23:28:00,33.1,-0.9,29.88,North,0,0.0,0.0,23,0.00,,---,0.00,VWS V14.00,2013-03-04 04:28:00,
2013-03-03 23:33:00,33.1,-0.9,29.88,North,0,0.0,0.0,23,0.00,,---,0.00,VWS V14.00,2013-03-04 04:33:00,
2013-03-03 23:39:00,32.9,-1.0,29.88,North,0,0.0,0.0,23,0.00,,---,0.00,VWS V14.00,2013-03-04 04:39:00,
2013-03-03 23:45:00,32.7,-1.2,29.88,North,0,0.0,0.0,23,0.00,,---,0.00,VWS V14.00,2013-03-04 04:45:00,
2013-03-03 23:51:00,32.5,-1.3,29.88,North,0,0.0,0.0,23,0.00,,---,0.00,VWS V14.00,2013-03-04 04:51:00,
2013-03-03 23:57:00,32.4,-1.5,29.88,North,0,0.0,0.0,23,0.00,,---,0.00,VWS V14.00,2013-03-04 04:57:00,